TimeEDT,TemperatureF,Dew PointF,Humidity,Sea Level PressureIn,VisibilityMPH,Wind Direction,Wind SpeedMPH,Gust SpeedMPH,PrecipitationIn,Events,Conditions,WindDirDegrees,DateUTC
12:54 AM,53.1,48.0,83,29.84,8.0,ENE,9.2,-,0.02,Rain,Light Rain,70,2013-03-12 04:54:00
1:54 AM,53.1,48.0,83,29.83,10.0,East,8.1,-,0.02,Rain,Light Rain,90,2013-03-12 05:54:00
2:54 AM,53.1,48.0,83,29.80,10.0,East,15.0,24.2,0.02,Rain,Light Rain,90,2013-03-12 06:54:00
3:54 AM,53.1,48.0,83,29.78,10.0,East,9.2,17.3,0.00,Rain,Light Rain,100,2013-03-12 07:54:00
4:54 AM,53.1,48.0,83,29.77,9.0,East,6.9,-,0.01,Rain,Light Rain,100,2013-03-12 08:54:00
5:54 AM,53.1,48.9,86,29.77,6.0,Variable,4.6,-,0.02,Rain,Light Rain,0,2013-03-12 09:54:00
6:54 AM,54.0,48.9,83,29.76,7.0,SSE,10.4,18.4,0.03,Rain,Light Rain,150,2013-03-12 10:54:00
7:54 AM,51.1,48.9,92,29.76,3.0,South,5.8,-,0.03,Rain,Light Rain,170,2013-03-12 11:54:00
8:02 AM,51.8,48.2,88,29.77,3.0,West,11.5,-,0.00,Rain,Light Rain,260,2013-03-12 12:02:00
8:13 AM,50.0,48.2,94,29.77,3.0,West,11.5,-,0.01,Rain,Light Rain,260,2013-03-12 12:13:00
8:16 AM,50.0,48.2,94,29.77,2.5,West,12.7,-,0.02,Rain,Rain,260,2013-03-12 12:16:00
8:31 AM,50.0,48.2,94,29.77,3.0,West,9.2,-,0.04,Rain,Light Rain,270,2013-03-12 12:31:00
8:54 AM,50.0,48.0,93,29.77,9.0,WNW,4.6,-,0.05,,Overcast,290,2013-03-12 12:54:00
9:43 AM,48.2,46.4,93,29.77,2.0,West,11.5,-,0.04,Rain,Rain,280,2013-03-12 13:43:00
9:54 AM,48.0,46.0,93,29.78,3.0,West,11.5,-,0.07,Rain,Rain,280,2013-03-12 13:54:00
10:08 AM,48.2,46.4,93,29.77,4.0,WNW,10.4,-,0.02,Rain,Rain,290,2013-03-12 14:08:00
10:54 AM,46.9,45.0,93,29.78,4.0,West,10.4,-,0.11,Rain,Rain,270,2013-03-12 14:54:00
11:54 AM,46.9,45.0,93,29.78,4.0,West,11.5,-,0.13,Rain,Rain,260,2013-03-12 15:54:00
12:54 PM,45.0,43.0,93,29.80,6.0,West,12.7,-,0.06,Rain,Rain,260,2013-03-12 16:54:00
1:21 PM,44.6,42.8,93,29.79,4.0,West,8.1,-,0.03,Rain,Light Rain,270,2013-03-12 17:21:00
1:30 PM,44.6,42.8,93,29.79,10.0,West,8.1,-,0.03,Rain,Light Rain,280,2013-03-12 17:30:00
1:54 PM,46.0,43.0,89,29.79,10.0,West,5.8,-,0.03,,Overcast,260,2013-03-12 17:54:00
2:15 PM,46.4,42.8,87,29.78,10.0,WSW,5.8,-,N/A,,Overcast,250,2013-03-12 18:15:00
2:54 PM,46.9,39.0,74,29.78,10.0,West,11.5,-,N/A,,Overcast,280,2013-03-12 18:54:00
3:02 PM,46.4,39.2,76,29.78,10.0,WNW,8.1,-,N/A,,Overcast,290,2013-03-12 19:02:00
3:41 PM,48.2,39.2,71,29.78,10.0,WNW,6.9,-,N/A,,Overcast,290,2013-03-12 19:41:00
3:54 PM,48.0,37.0,66,29.78,10.0,WNW,9.2,-,N/A,,Overcast,290,2013-03-12 19:54:00
4:54 PM,46.0,34.0,63,29.82,10.0,West,12.7,18.4,N/A,,Overcast,270,2013-03-12 20:54:00
5:54 PM,46.0,32.0,58,29.83,10.0,WNW,9.2,-,N/A,,Overcast,290,2013-03-12 21:54:00
6:54 PM,45.0,30.0,56,29.85,10.0,WNW,8.1,-,N/A,,Overcast,290,2013-03-12 22:54:00
7:54 PM,44.1,28.9,55,29.88,10.0,West,13.8,-,N/A,,Overcast,270,2013-03-12 23:54:00
8:54 PM,42.1,28.9,60,29.90,10.0,WNW,6.9,-,N/A,,Overcast,300,2013-03-13 00:54:00
9:54 PM,41.0,27.0,57,29.92,10.0,West,9.2,-,N/A,,Overcast,270,2013-03-13 01:54:00
10:54 PM,41.0,27.0,57,29.93,10.0,West,10.4,-,N/A,,Overcast,280,2013-03-13 02:54:00
11:54 PM,39.9,24.1,53,29.94,10.0,West,6.9,18.4,N/A,,Overcast,280,2013-03-13 03:54:00